Weather reports worldwide

Advertisment
Asturias/Aviles, Spain (8011): temperature & dewpoint: 16.03.2019 18:00:00 - 22.03.2019 18:00:00 (CET)Asturias/Aviles, Spain (8011): wind speed: 16.03.2019 18:00:00 - 22.03.2019 18:00:00 (CET)Asturias/Aviles, Spain (8011): wind direction: 16.03.2019 18:00:00 - 22.03.2019 18:00:00 (CET)Asturias/Aviles, Spain (8011): reduced air pressure: 16.03.2019 18:00:00 - 22.03.2019 18:00:00 (CET)Asturias/Aviles, Spain (8011): visibility: 16.03.2019 18:00:00 - 22.03.2019 18:00:00 (CET)
Date & Time tt [°C] td [°C] ff [km/h] ff [kn] dd ppp [hPa] vv [km]
22.03.2019 18:00:00 13,9 9,0 5 3 N 1026,5 -
22.03.2019 17:00:00 15,2 8,6 8 4 N 1026,2 -
22.03.2019 16:00:00 15,3 6,0 4 2 NNE 1026,4 20
22.03.2019 15:00:00 15,0 5,2 8 4 NNE 1026,6 -
22.03.2019 14:00:00 15,5 4,7 8 4 N 1026,9 -
22.03.2019 13:00:00 15,6 5,3 8 4 N 1027,1 20
22.03.2019 12:00:00 15,3 6,1 4 2 W 1027,3 -
22.03.2019 11:00:00 12,4 5,6 8 4 NW 1027,5 -
22.03.2019 10:00:00 11,1 4,9 9 5 SSW 1026,9 20
22.03.2019 09:00:00 7,7 4,1 13 7 SW 1026,7 -
22.03.2019 08:00:00 5,6 4,1 15 8 SSW 1026,8 -
22.03.2019 07:00:00 4,7 3,5 15 8 SW 1026,4 15
22.03.2019 06:00:00 4,9 3,9 15 8 SSW 1026,3 -
22.03.2019 05:00:00 5,2 4,3 13 7 SSW 1026,2 -
22.03.2019 04:00:00 5,6 4,5 15 8 SSW 1026,5 -
22.03.2019 03:00:00 5,4 4,5 11 6 SSW 1026,7 -
22.03.2019 02:00:00 5,3 4,5 8 4 S 1026,9 -
22.03.2019 01:00:00 5,4 4,5 8 4 S 1027,3 -
22.03.2019 00:00:00 6,4 5,2 11 6 SE 1027,4 -
21.03.2019 23:00:00 7,6 6,0 15 8 ESE 1027,6 -
21.03.2019 22:00:00 9,4 7,0 16 9 ESE 1027,5 20
21.03.2019 21:00:00 9,7 6,8 15 8 ESE 1027,7 -
21.03.2019 20:00:00 10,3 6,3 18 10 ESE 1027,6 -
21.03.2019 19:00:00 11,4 6,1 18 10 ESE 1027,3 30
21.03.2019 18:00:00 12,7 5,1 21 11 E 1027,2 -
21.03.2019 17:00:00 13,8 4,6 24 13 ESE 1027,7 -
21.03.2019 16:00:00 14,0 5,0 16 9 E 1028,3 30
21.03.2019 15:00:00 14,1 4,7 15 8 E 1028,9 -
21.03.2019 14:00:00 14,5 6,1 15 8 E 1029,7 -
21.03.2019 13:00:00 14,2 6,2 21 11 E 1030,1 25
21.03.2019 12:00:00 13,2 6,2 15 8 E 1030,6 -
21.03.2019 11:00:00 12,1 5,9 16 9 ESE 1030,8 -
21.03.2019 10:00:00 11,3 5,4 18 10 ESE 1030,9 25
21.03.2019 09:00:00 9,7 4,9 15 8 SE 1031,0 -
21.03.2019 08:00:00 4,7 3,2 11 6 SE 1031,2 -
21.03.2019 07:00:00 3,1 1,9 11 6 SSE 1031,4 20
21.03.2019 06:00:00 3,3 1,3 11 6 SSE 1031,5 -
21.03.2019 05:00:00 4,2 2,2 11 6 SSE 1031,3 -
21.03.2019 04:00:00 4,9 2,4 15 8 SE 1031,5 -
21.03.2019 03:00:00 5,0 2,0 13 7 ESE 1031,8 -
21.03.2019 02:00:00 6,1 2,9 16 9 ESE 1031,5 -
21.03.2019 01:00:00 6,9 4,0 16 9 ESE 1031,8 -
21.03.2019 00:00:00 7,5 4,4 18 10 ESE 1031,9 -
20.03.2019 23:00:00 8,3 4,7 21 11 ESE 1032,0 -
20.03.2019 22:00:00 9,1 4,9 22 12 ESE 1032,1 25
20.03.2019 21:00:00 9,2 4,6 18 10 ESE 1032,0 -
20.03.2019 20:00:00 9,7 4,7 21 11 ESE 1031,9 -
20.03.2019 19:00:00 10,7 5,7 21 11 ESE 1031,7 30
20.03.2019 18:00:00 11,7 6,0 28 15 ESE 1031,5 -
20.03.2019 17:00:00 12,6 5,8 26 14 ESE 1031,2 -
20.03.2019 16:00:00 13,2 6,9 18 10 E 1031,4 35
20.03.2019 15:00:00 12,7 6,7 21 11 E 1031,6 -
20.03.2019 14:00:00 13,4 6,2 16 9 E 1032,1 -
20.03.2019 13:00:00 12,9 6,7 18 10 E 1033,3 28
20.03.2019 12:00:00 - - 16 9 ESE - -
20.03.2019 11:00:00 10,6 7,7 18 10 ESE 1033,6 -
20.03.2019 10:00:00 10,4 8,4 15 8 ESE 1033,4 18
20.03.2019 09:00:00 9,0 7,3 11 6 ESE 1033,4 -
20.03.2019 08:00:00 6,6 5,7 8 4 SE 1032,9 -
20.03.2019 07:00:00 7,4 6,5 8 4 SE 1032,1 25
20.03.2019 06:00:00 8,2 7,3 9 5 SSE 1032,1 -
20.03.2019 05:00:00 7,6 6,8 5 3 SSE 1032,1 -
20.03.2019 04:00:00 7,2 6,3 5 3 SSE 1032,5 -
20.03.2019 03:00:00 8,1 7,0 5 3 SE 1032,6 -
20.03.2019 02:00:00 7,8 6,7 9 5 SE 1033,1 -
20.03.2019 01:00:00 8,2 7,3 5 3 S 1033,3 -
20.03.2019 00:00:00 7,8 6,7 5 3 S 1033,5 -
19.03.2019 23:00:00 8,2 7,0 4 2 S 1033,3 -
19.03.2019 22:00:00 8,7 7,5 5 3 SSE 1033,1 20
19.03.2019 21:00:00 8,6 6,9 4 2 SE 1032,8 -
19.03.2019 20:00:00 9,1 7,0 4 2 E 1032,3 -
19.03.2019 19:00:00 11,0 8,0 8 4 ESE 1031,9 25
19.03.2019 18:00:00 12,1 7,3 5 3 NNE 1031,4 -
19.03.2019 17:00:00 11,4 7,7 8 4 N 1031,4 -
19.03.2019 16:00:00 11,4 8,6 4 2 NE 1031,4 20
19.03.2019 15:00:00 11,0 8,7 5 3 NW 1031,4 -
19.03.2019 14:00:00 12,5 8,5 9 5 WNW 1031,6 -
19.03.2019 13:00:00 11,7 8,7 8 4 W 1031,8 20
19.03.2019 12:00:00 11,6 9,1 8 4 W 1031,8 -
19.03.2019 11:00:00 9,8 8,0 9 5 SW 1031,8 -
19.03.2019 10:00:00 8,7 7,8 8 4 SW 1031,7 12
19.03.2019 09:00:00 8,0 7,4 9 5 SW 1031,3 -
19.03.2019 08:00:00 7,9 7,1 4 2 SSW 1030,9 -
19.03.2019 07:00:00 7,9 7,3 4 2 WNW 1030,7 9
19.03.2019 06:00:00 7,5 6,6 8 4 SW 1030,4 -
19.03.2019 05:00:00 7,6 6,2 9 5 SW 1030,3 -
19.03.2019 04:00:00 7,6 6,1 8 4 SW 1030,3 -
19.03.2019 03:00:00 7,8 5,5 2 1 SW 1031,0 -
19.03.2019 02:00:00 8,0 5,5 8 4 SW 1031,3 -
19.03.2019 01:00:00 8,3 5,2 4 2 SW 1031,5 -
19.03.2019 00:00:00 8,2 5,1 4 2 SSW 1031,5 -
18.03.2019 23:00:00 8,2 5,5 4 2 SW 1031,9 -
18.03.2019 22:00:00 8,5 5,2 5 3 SW 1031,8 20
18.03.2019 21:00:00 8,9 5,6 4 2 WNW 1031,3 -
18.03.2019 20:00:00 9,6 4,9 4 2 NW 1031,3 -
18.03.2019 19:00:00 11,0 5,4 4 2 NNW 1030,9 25
18.03.2019 18:00:00 11,7 6,0 8 4 NNW 1030,5 -
18.03.2019 17:00:00 12,0 5,1 8 4 N 1030,2 -
18.03.2019 16:00:00 12,5 6,5 9 5 NNW 1030,2 25
18.03.2019 15:00:00 12,2 5,4 9 5 NNW 1030,5 -
18.03.2019 14:00:00 12,0 5,4 9 5 NNW 1031,0 -
18.03.2019 13:00:00 11,8 6,1 9 5 NNW 1031,2 25
18.03.2019 12:00:00 11,0 5,5 11 6 WNW 1031,5 -
18.03.2019 11:00:00 9,5 5,9 13 7 SW 1031,6 -
18.03.2019 10:00:00 6,7 3,9 15 8 SSW 1031,3 20
18.03.2019 09:00:00 5,0 3,0 16 9 SSW 1030,8 -
18.03.2019 08:00:00 4,4 2,1 15 8 SW 1030,1 -
18.03.2019 07:00:00 4,3 2,3 15 8 SSW 1029,7 18
18.03.2019 06:00:00 4,7 2,7 11 6 SSW 1029,4 -
18.03.2019 05:00:00 4,8 2,8 8 4 SSW 1029,4 -
18.03.2019 04:00:00 5,1 2,8 11 6 SW 1029,1 -
18.03.2019 03:00:00 4,9 2,1 15 8 SSW 1029,1 -
18.03.2019 02:00:00 5,4 2,6 15 8 SSW 1029,1 -
18.03.2019 01:00:00 5,4 2,6 11 6 SSW 1029,4 -
18.03.2019 00:00:00 6,3 2,6 8 4 SW 1029,5 -
17.03.2019 23:00:00 5,9 2,4 8 4 SW 1029,5 -
17.03.2019 22:00:00 8,3 3,1 5 3 WNW 1029,2 25
17.03.2019 21:00:00 9,1 2,6 8 4 NW 1028,6 -
17.03.2019 20:00:00 9,0 2,3 8 4 NW 1028,0 -
17.03.2019 19:00:00 9,6 2,9 9 5 NW 1027,5 25
17.03.2019 18:00:00 10,4 3,0 11 6 NW 1026,8 -
17.03.2019 17:00:00 11,9 3,2 13 7 NW 1026,2 -
17.03.2019 16:00:00 11,8 4,2 11 6 NW 1026,3 20
17.03.2019 15:00:00 12,5 5,6 15 8 WNW 1026,0 -
17.03.2019 14:00:00 11,4 5,3 15 8 NW 1025,9 -
17.03.2019 13:00:00 10,5 5,3 9 5 NW 1025,6 15
17.03.2019 12:00:00 9,9 6,3 18 10 W 1025,1 -
17.03.2019 11:00:00 9,4 6,8 18 10 W 1024,4 -
17.03.2019 10:00:00 8,9 7,3 18 10 W 1023,7 7
17.03.2019 09:00:00 8,0 6,9 26 14 WNW 1022,9 -
17.03.2019 08:00:00 8,3 7,4 18 10 W 1021,5 -
17.03.2019 07:00:00 7,9 7,3 16 9 NW 1020,7 3,0
17.03.2019 06:00:00 10,1 8,9 28 15 WNW 1019,2 -
17.03.2019 05:00:00 11,0 5,1 22 12 WSW 1017,3 -
17.03.2019 04:00:00 11,4 3,6 24 13 SW 1016,7 -
17.03.2019 03:00:00 10,7 4,8 22 12 SW 1016,9 -
17.03.2019 02:00:00 9,1 5,3 16 9 WSW 1017,5 -
17.03.2019 01:00:00 10,0 5,9 34 18 WNW 1017,3 -
17.03.2019 00:00:00 9,1 8,0 11 6 W 1017,5 -
16.03.2019 23:00:00 9,2 7,1 8 4 S 1016,9 -
16.03.2019 22:00:00 10,5 8,4 8 4 SE 1017,5 10
16.03.2019 21:00:00 10,8 8,7 5 3 W 1017,7 -
16.03.2019 20:00:00 10,9 8,6 11 6 WNW 1017,8 -
16.03.2019 19:00:00 10,8 8,6 15 8 NW 1017,5 10
16.03.2019 18:00:00 11,1 8,5 15 8 WNW 1017,3 -

tt = temperature
td = dewpoint
ff = wind speed
dd = wind direction
ppp = reduced air pressure
vv = visibility

Next stations